Location: Karcze
(52.0945°N, 22.4786°E)
Time: 02:09:37
(UTC+00:00)

Transit 2A Rocket - Pass Details

Date: 31 July 2021
Orbit: 586 x 916 km, 66.7° (Epoch: 21 September)

Event Time Altitude Azimuth Distance (km) Brightness Sun altitude
Rises 12:52:19 0° 202° (SSW) 2,852 8.5 46.9°
Reaches altitude 10° 12:54:31 10° 197° (SSW) 1,981 7.9 46.6°
Maximum altitude 12:58:51 53° 121° (ESE) 801 5.6 46.1°
Drops below altitude 10° 13:03:35 10° 45° (NE) 2,163 7.0 45.5°
Sets 13:06:05 0° 41° (NE) 3,141 7.8 45.2°
